AE7VB Weather Reports


Display with metric or nautical units.
time (UTC)temp
F
wind
direction
speed
MPH
gust
MPH
rain 1hr
in
rain 24hr
in
rain mn
in
humidity
%
barometer
mb
20220627055850 63 153 3.0 6.0 0.00 0.00 0.00 52 1022.4
20220627054848 63 158 4.0 6.0 0.00 0.00 0.00 52 1022.3
20220627053847 63 147 3.0 6.0 0.00 0.00 0.00 51 1022.2
20220627052846 64 152 3.0 7.0 0.00 0.00 0.00 52 1022.1
20220627051845 64 152 4.0 7.0 0.00 0.00 0.00 53 1022.1
20220627050844 64 158 5.0 7.0 0.00 0.00 0.00 53 1022.0
20220627045843 64 154 4.0 7.0 0.00 0.00 0.00 53 1022.3
20220627044842 64 152 3.0 7.0 0.00 0.00 0.00 53 1022.3
20220627043841 65 149 4.0 5.0 0.00 0.00 0.00 54 1021.9
20220627042840 65 145 4.0 5.0 0.00 0.00 0.00 54 1021.9
20220627041838 66 138 3.0 5.0 0.00 0.00 0.00 54 1021.9
20220627040838 67 135 4.0 5.0 0.00 0.00 0.00 53 1021.8
20220627035837 68 144 3.0 5.0 0.00 0.00 0.00 52 1021.9
20220627034836 69 140 3.0 4.0 0.00 0.00 0.00 52 1022.0
20220627033835 71 132 3.0 4.0 0.00 0.00 0.00 50 1021.8
20220627032834 73 120 3.0 4.0 0.00 0.00 0.00 49 1022.1
20220627031833 75 101 3.0 6.0 0.00 0.00 0.00 50 1022.4
20220627030832 76 100 2.0 6.0 0.00 0.00 0.00 44 1022.5
20220627025830 77 103 3.0 6.0 0.00 0.00 0.00 42 1022.6
20220627024829 78 100 3.0 6.0 0.00 0.00 0.00 41 1022.6
20220627023828 78 92 2.0 6.0 0.00 0.00 0.00 41 1023.0
20220627022827 79 95 3.0 4.0 0.00 0.00 0.00 40 1023.1
20220627021825 79 89 2.0 6.0 0.00 0.00 0.00 39 1023.0
20220627020824 79 100 2.0 6.0 0.00 0.00 0.00 40 1022.8
20220627015824 80 85 4.0 6.0 0.00 0.00 0.00 39 1022.6
20220627014822 80 91 3.0 9.0 0.00 0.00 0.00 39 1022.4
20220627013821 81 95 5.0 8.0 0.00 0.00 0.00 38 1022.3
20220627012820 82 96 6.0 8.0 0.00 0.00 0.00 36 1022.2
20220627011819 82 75 3.0 9.0 0.00 0.00 0.00 38 1022.5
20220627010817 83 87 3.0 9.0 0.00 0.00 0.00 36 1022.4
20220627005816 84 75 2.0 10.0 0.00 0.00 0.00 34 1022.4
20220627004815 85 85 3.0 10.0 0.00 0.00 0.00 32 1022.4
20220627003813 85 22 2.0 9.0 0.00 0.00 0.00 28 1022.4
20220627002812 86 24 6.0 10.0 0.00 0.00 0.00 28 1022.8
20220627001811 86 8 2.0 10.0 0.00 0.00 0.00 30 1022.8
20220627000810 86 14 2.0 7.0 0.00 0.00 0.00 27 1022.8
20220626235809 86 266 2.0 8.0 0.00 0.00 0.00 24 1022.7
20220626234808 86 277 3.0 7.0 0.00 0.00 0.00 27 1023.0
20220626233807 85 4 3.0 5.0 0.00 0.00 0.00 27 1023.0
20220626232807 84 303 1.0 6.0 0.00 0.00 0.00 29 1022.9
20220626231806 84 40 2.0 10.0 0.00 0.00 0.00 27 1022.9
20220626230805 83 42 3.0 10.0 0.00 0.00 0.00 25 1023.1
20220626225803 84 264 2.0 7.0 0.00 0.00 0.00 29 1023.2
20220626224802 84 245 3.0 11.0 0.00 0.00 0.00 26 1023.3
20220626223801 85 268 5.0 11.0 0.00 0.00 0.00 27 1023.4
20220626222800 85 266 3.0 10.0 0.00 0.00 0.00 22 1023.4
20220626221759 85 264 5.0 11.0 0.00 0.00 0.00 28 1023.6
20220626220758 85 292 4.0 11.0 0.00 0.00 0.00 31 1023.7
20220626215757 85 298 5.0 11.0 0.00 0.00 0.00 34 1023.7
20220626214755 84 278 2.0 10.0 0.00 0.00 0.00 35 1023.7
20220626213754 84 288 8.0 10.0 0.00 0.00 0.00 32 1023.9
20220626212753 84 269 2.0 14.0 0.00 0.00 0.00 32 1023.9
20220626211752 83 289 5.0 14.0 0.00 0.00 0.00 36 1023.9
20220626210750 83 288 7.0 10.0 0.00 0.00 0.00 36 1023.9
20220626205749 83 302 2.0 10.0 0.00 0.00 0.00 39 1024.0
20220626204748 82 297 1.0 8.0 0.00 0.00 0.00 38 1024.0
20220626203747 82 322 2.0 9.0 0.00 0.00 0.00 42 1024.4
20220626202746 82 27 4.0 9.0 0.00 0.00 0.00 43 1024.4
20220626201746 81 4 3.0 10.0 0.00 0.00 0.00 40 1024.4
20220626200743 81 299 5.0 10.0 0.00 0.00 0.00 39 1024.7
20220626195742 79 311 1.0 8.0 0.00 0.00 0.00 36 1024.5
20220626194741 79 354 2.0 9.0 0.00 0.00 0.00 40 1024.5
20220626193740 79 18 5.0 9.0 0.00 0.00 0.00 44 1025.0
20220626192739 79 30 2.0 7.0 0.00 0.00 0.00 48 1025.0
20220626191738 78 67 3.0 8.0 0.00 0.00 0.00 46 1024.9
20220626190737 77 59 3.0 8.0 0.00 0.00 0.00 49 1024.9
20220626185736 77 40 4.0 9.0 0.00 0.00 0.00 48 1024.7
20220626184735 76 21 3.0 10.0 0.00 0.00 0.00 50 1024.7
20220626183734 76 15 9.0 10.0 0.00 0.00 0.00 48 1025.0
20220626182733 76 79 3.0 7.0 0.00 0.00 0.00 49 1025.0
20220626181732 76 5 2.0 6.0 0.00 0.00 0.00 48 1025.3
20220626180731 75 49 2.0 6.0 0.00 0.00 0.00 50 1025.2
20220626175731 74 30 3.0 7.0 0.00 0.00 0.00 47 1025.1
20220626174729 73 37 2.0 5.0 0.00 0.00 0.00 52 1025.1
20220626173728 73 18 2.0 5.0 0.00 0.00 0.00 50 1024.9
20220626172728 72 9 2.0 5.0 0.00 0.00 0.00 48 1025.1
20220626171727 71 320 2.0 7.0 0.00 0.00 0.00 49 1025.1
20220626170726 70 287 1.0 7.0 0.00 0.00 0.00 53 1025.1
20220626165725 69 348 2.0 4.0 0.00 0.00 0.00 53 1025.0
20220626164724 69 8 1.0 3.0 0.00 0.00 0.00 52 1025.0
20220626163723 68 6 1.0 5.0 0.00 0.00 0.00 51 1024.9
20220626162722 68 8 3.0 5.0 0.00 0.00 0.00 52 1024.9
20220626161720 67 29 2.0 4.0 0.00 0.00 0.00 54 1025.2
20220626160720 65 34 2.0 4.0 0.00 0.00 0.00 58 1025.2
20220626155718 64 20 1.0 4.0 0.00 0.00 0.00 58 1025.2
20220626154718 64 16 2.0 4.0 0.00 0.00 0.00 58 1025.3
20220626153717 63 41 2.0 6.0 0.00 0.00 0.00 60 1025.9
20220626152716 64 38 3.0 6.0 0.00 0.00 0.00 58 1025.8
20220626151715 64 51 3.0 5.0 0.00 0.00 0.00 58 1026.0
20220626150713 64 40 3.0 5.0 0.00 0.00 0.00 58 1026.1
20220626145711 64 51 3.0 5.0 0.00 0.00 0.00 58 1026.1
20220626144710 63 102 1.0 6.0 0.00 0.00 0.00 59 1026.1
20220626143709 64 68 3.0 5.0 0.00 0.00 0.00 57 1026.2
20220626142708 64 65 2.0 4.0 0.00 0.00 0.00 57 1026.3
20220626141706 62 66 1.0 3.0 0.00 0.00 0.00 62 1026.1
20220626140705 60 66 1.0 3.0 0.00 0.00 0.00 63 1026.0
20220626135704 58 65 1.0 4.0 0.00 0.00 0.00 67 1025.7
20220626134703 55 86 1.0 4.0 0.00 0.00 0.00 71 1025.5
20220626133702 54 87 2.0 3.0 0.00 0.00 0.00 74 1025.4
20220626132700 53 140 2.0 3.0 0.00 0.00 0.00 76 1025.4
20220626131700 52 140 2.0 3.0 0.00 0.00 0.00 79 1025.3
20220626130658 51 140 2.0 4.0 0.00 0.00 0.00 80 1025.2
20220626125656 50 140 2.0 4.0 0.00 0.00 0.00 80 1025.1
20220626124656 50 140 2.0 3.0 0.00 0.00 0.00 80 1025.1
20220626123654 49 141 1.0 3.0 0.00 0.00 0.00 80 1025.0
20220626122654 49 140 2.0 3.0 0.00 0.00 0.00 79 1024.6
20220626121652 49 141 2.0 4.0 0.00 0.00 0.00 79 1024.9
20220626120651 49 140 2.0 4.0 0.00 0.00 0.00 79 1024.9
20220626115650 49 140 2.0 3.0 0.00 0.00 0.00 78 1024.9
20220626114649 49 140 1.0 3.0 0.00 0.00 0.00 78 1024.8
20220626113648 49 140 1.0 3.0 0.00 0.00 0.00 78 1024.8
20220626112646 49 140 2.0 4.0 0.00 0.00 0.00 78 1024.5
20220626111644 49 140 3.0 4.0 0.00 0.00 0.00 77 1024.5
20220626110643 50 140 3.0 4.0 0.00 0.00 0.00 77 1024.7
20220626105642 50 205 1.0 2.0 0.00 0.00 0.00 77 1024.7
20220626104641 50 205 0.0 2.0 0.00 0.00 0.00 76 1024.4
20220626103639 50 205 1.0 2.0 0.00 0.00 0.00 75 1024.6
20220626102638 51 205 0.0 3.0 0.00 0.00 0.00 74 1024.6
20220626101637 52 205 1.0 4.0 0.00 0.00 0.00 73 1024.7
20220626100636 52 205 2.0 4.0 0.00 0.00 0.00 72 1024.8
20220626095635 52 205 1.0 3.0 0.00 0.00 0.00 73 1024.9
20220626094634 52 205 2.0 3.0 0.00 0.00 0.00 73 1024.7
20220626093633 52 205 2.0 3.0 0.00 0.00 0.00 73 1025.0
20220626092632 52 205 2.0 3.0 0.00 0.00 0.00 74 1025.0
20220626091631 52 205 1.0 3.0 0.00 0.00 0.00 72 1025.0
20220626090630 53 205 1.0 4.0 0.00 0.00 0.00 72 1025.1
20220626085629 53 205 3.0 4.0 0.00 0.00 0.00 71 1025.1
20220626084628 54 205 2.0 4.0 0.00 0.00 0.00 70 1024.7
20220626083627 54 156 1.0 3.0 0.00 0.00 0.00 69 1024.8
20220626082626 55 156 1.0 2.0 0.00 0.00 0.00 68 1025.2
20220626081625 55 156 1.0 3.0 0.00 0.00 0.00 68 1025.2
20220626080624 55 156 2.0 3.0 0.00 0.00 0.00 67 1025.1
20220626075623 56 156 1.0 3.0 0.00 0.00 0.00 66 1025.1
20220626074622 56 156 2.0 3.0 0.00 0.00 0.00 66 1025.1
20220626073622 56 156 2.0 3.0 0.00 0.00 0.00 65 1025.1
20220626072621 56 156 2.0 5.0 0.00 0.00 0.00 65 1025.0
20220626071620 56 155 2.0 5.0 0.00 0.00 0.00 66 1025.0
20220626070619 57 155 3.0 6.0 0.00 0.00 0.00 66 1025.0
20220626065618 57 158 3.0 6.0 0.00 0.00 0.00 66 1025.0
20220626064617 57 165 2.0 5.0 0.00 0.00 0.00 66 1024.9
20220626063616 57 168 2.0 5.0 0.00 0.00 0.00 66 1024.9
20220626062614 57 168 3.0 5.0 0.00 0.00 0.00 66 1024.8
20220626061613 57 171 2.0 4.0 0.00 0.00 0.00 66 1024.8
20220626060611 57 171 2.0 4.0 0.00 0.00 0.00 66 1025.0